Wind_Speed
6 6 5 4 4 3 2 2 2 2 2 2 2 2 2 2 2 3 3 3 3 4 5 6 6 6 6 6 6 6 7 8 8 8 8 7 6 6 6 6 6 6 6
7 7 6 5 4 3 3 2 2 1 1 1 1 1 2 2 2 2 2 3 3 4 5 5 6 6 7 7 7 7 7 8 8 9 10 9 8 8 8 7 7 7 7
8 7 6 5 4 3 3 2 2 2 1 1 1 1 1 1 1 1 2 3 4 4 5 5 5 6 6 7 8 8 7 7 8 9 10 11 11 10 10 10 9 9 10
8 8 7 5 4 4 3 3 2 2 2 1 2 1 1 1 1 1 2 4 4 5 5 5 6 6 7 7 7 8 8 8 8 9 10 10 11 11 11 12 12 12 11
8 8 7 6 5 4 3 3 2 2 2 2 1 1 1 1 1 2 2 4 5 5 5 5 6 6 7 7 7 7 8 9 9 9 9 10 10 11 12 12 13 14 13
9 9 8 7 5 4 4 3 3 2 2 1 1 1 0 1 2 2 3 4 5 6 6 6 6 6 7 7 7 8 8 8 9 9 9 9 10 11 12 12 13 14 14
10 8 8 8 6 5 4 3 2 2 2 1 1 0 0 1 2 3 4 5 5 6 6 6 7 7 7 7 7 7 8 8 8 8 9 10 11 11 12 11 12 13 14
10 9 8 8 6 5 4 3 3 2 1 1 0 0 1 2 3 4 4 5 6 6 6 6 6 6 7 7 7 7 8 8 8 8 9 9 10 11 12 12 13 14 14
11 9 9 8 7 6 5 4 4 3 1 1 1 1 2 2 3 4 5 5 6 7 7 7 8 7 7 7 8 8 8 9 9 9 9 9 10 10 10 11 12 12 13
12 11 10 9 8 6 5 4 4 3 2 2 2 2 3 3 4 5 6 6 6 7 7 7 8 8 8 8 8 8 8 8 9 9 9 10 10 10 10 11 11 12 13
13 12 11 9 8 6 6 5 5 4 3 3 2 3 3 4 5 6 7 7 8 8 8 8 8 8 8 8 8 9 9 9 9 10 10 10 11 11 12 12 12 13 14
14 13 12 10 8 8 7 6 5 5 4 4 3 3 4 5 6 7 8 8 9 9 9 9 9 9 9 9 9 10 11 11 11 11 11 11 12 12 12 13 13 13 14
15 14 12 10 9 9 8 7 6 5 5 5 5 5 5 6 7 8 8 9 9 10 10 10 10 10 10 10 11 11 12 12 12 12 12 12 13 13 13 14 15 15 15
15 14 13 11 10 9 9 8 7 6 6 6 6 6 7 7 8 9 10 10 10 11 11 11 11 11 11 11 12 12 13 13 13 13 14 14 14 15 15 15 16 17 17
16 15 13 12 11 11 10 9 9 8 8 8 8 8 8 9 9 10 11 11 12 12 12 12 13 13 13 13 14 14 14 14 15 15 16 16 17 17 17 18 18 19 19
16 15 13 12 12 12 12 11 10 10 9 9 9 10 10 10 11 12 12 13 13 13 13 13 14 15 15 15 15 16 16 16 16 17 18 18 19 19 20 20 21 21 22
17 16 14 13 12 12 12 12 11 11 11 11 11 12 12 13 13 14 14 14 15 15 15 15 15 16 16 16 17 17 17 18 19 19 20 20 20 21 22 22 23 23 24
17 16 15 13 13 13 12 12 12 13 13 13 13 14 14 14 15 15 16 16 16 17 17 17 17 17 17 18 18 19 19 20 21 21 22 22 23 23 24 25 25 26 26
18 17 16 15 15 14 14 13 13 14 14 14 15 16 16 16 17 17 17 18 18 18 18 18 19 19 19 20 20 21 21 22 23 23 24 25 25 26 27 27 28 28 28
18 18 17 16 16 16 15 14 14 15 15 16 17 17 17 18 19 19 19 19 19 20 20 20 20 21 22 23 23 23 24 25 26 26 27 27 28 29 29 29 29 30 30
18 17 16 16 16 16 16 15 15 16 17 18 18 19 19 20 20 21 21 21 21 22 22 23 24 24 24 25 26 27 27 28 28 29 30 30 31 31 32 32 33 33 33
17 16 16 17 17 16 16 16 17 18 18 19 20 20 21 22 22 22 22 23 23 24 25 26 26 26 27 28 29 30 31 31 31 32 32 33 34 34 34 34 35 36 36
17 16 17 16 17 17 18 18 19 19 20 21 21 22 23 23 23 24 25 25 26 26 27 28 29 29 30 30 31 32 33 34 34 35 36 36 36 36 37 37 37 38 38
17 18 18 18 19 20 20 21 21 22 23 23 24 24 25 25 25 25 26 26 28 29 29 30 31 31 33 34 34 35 36 37 37 38 39 39 38 38 38 39 39 39 40
18 19 19 20 21 21 22 23 23 25 25 25 25 26 27 27 28 28 28 29 30 31 32 32 33 34 35 36 37 38 39 39 40 40 42 42 41 41 40 41 41 42 42
18 18 19 21 21 22 23 24 25 26 26 27 27 28 29 30 30 30 30 31 32 33 34 35 35 36 37 37 39 41 42 43 43 42 43 44 43 43 43 43 44 44 45
Wind_Direction
241 242 244 249 247 254 272 274 265 245 244 237 251 261 258 271 268 270 278 290 297 301 302 301 298 296 295 287 287 280 274 269 264 262 262 261 265 264 264 261 258 252 246
242 241 239 243 243 246 252 251 242 236 237 235 266 271 268 275 278 279 293 304 308 310 312 313 311 304 298 292 290 287 279 274 271 265 261 258 260 263 265 265 260 256 255
239 235 236 239 235 240 245 238 223 222 227 242 259 276 299 305 305 305 313 319 324 318 315 313 308 307 307 302 295 290 287 283 273 268 267 265 262 262 264 264 263 261 259
234 233 233 230 236 245 251 235 221 218 231 234 248 260 299 317 311 321 322 326 326 321 319 320 316 310 306 305 302 292 285 282 279 273 273 271 266 266 266 264 260 261 260
230 230 230 228 231 241 249 240 230 227 226 223 224 228 262 307 323 330 334 331 332 331 324 323 326 319 310 307 306 299 289 284 277 278 281 280 278 272 272 269 263 262 262
225 227 228 223 226 239 241 230 223 220 211 200 197 202 266 319 337 337 335 335 337 337 336 330 327 327 316 310 307 308 302 295 283 281 285 284 286 282 278 273 270 267 265
220 223 221 219 222 232 226 208 209 202 192 189 185 198 325 324 337 335 334 333 332 335 334 335 334 333 328 320 311 307 308 310 301 295 292 286 283 285 284 279 275 271 268
220 215 214 219 221 224 214 207 201 191 181 182 196 321 331 335 339 338 335 336 335 336 337 340 342 340 336 329 321 316 312 313 310 307 305 298 292 289 283 280 279 275 270
216 215 213 218 218 217 216 214 210 207 212 233 278 321 326 328 335 336 333 333 333 333 336 340 338 340 339 333 327 321 317 315 313 311 310 306 301 299 294 292 285 282 279
215 214 212 210 212 218 215 214 221 222 230 251 281 309 321 325 330 333 335 335 334 333 333 332 332 332 336 335 330 330 326 323 318 313 311 308 307 305 302 297 291 284 281
212 214 212 212 214 217 216 221 229 232 234 250 276 299 317 325 327 329 333 334 333 333 333 332 334 334 334 333 333 333 328 321 317 315 312 309 306 303 302 299 296 291 286
213 212 213 214 215 215 217 224 230 235 242 253 270 291 310 320 325 324 326 328 327 327 326 327 328 328 327 326 327 327 325 321 316 314 313 311 307 303 301 299 297 294 288
212 211 212 215 214 216 219 223 230 240 246 256 269 284 299 308 314 318 321 323 323 323 322 323 323 322 323 322 321 322 321 321 317 316 314 311 308 305 301 298 295 293 292
211 212 214 217 218 221 223 227 233 241 249 259 270 282 293 302 306 311 314 316 317 318 318 317 318 318 317 316 314 315 315 315 314 313 312 310 308 305 302 299 296 293 291
212 211 216 218 221 223 227 232 238 246 256 263 271 279 288 294 300 305 308 310 311 313 313 312 311 312 312 311 310 311 310 310 309 308 307 306 304 302 299 298 296 293 291
212 214 217 220 222 226 234 240 244 252 258 265 270 276 282 287 292 298 302 305 307 308 309 310 308 307 308 309 307 306 306 305 305 305 304 303 302 301 300 298 296 294 292
214 219 222 223 227 233 241 244 250 255 260 265 270 275 280 284 290 294 297 300 301 303 304 306 306 306 305 305 305 305 304 304 304 304 303 303 303 302 300 299 298 296 293
217 220 225 227 232 240 246 251 256 258 263 268 272 276 280 284 288 292 294 296 297 300 301 302 303 304 304 304 303 303 303 303 303 303 302 302 303 302 300 299 298 297 295
221 224 228 231 237 245 251 257 261 264 267 271 276 278 280 282 286 289 291 293 295 298 300 300 301 302 302 302 303 303 302 301 301 301 300 300 299 299 299 298 297 296 295
222 227 233 237 242 249 254 259 263 268 271 275 279 280 280 282 285 288 290 292 294 296 297 298 298 300 301 301 301 301 300 300 300 299 298 298 298 297 296 295 295 294 294
226 232 235 240 245 251 256 261 266 270 275 279 281 282 284 285 287 288 289 290 292 294 295 296 297 298 300 301 300 299 298 298 299 298 298 298 297 297 296 294 294 293 292
230 237 241 245 249 253 258 263 267 273 278 281 283 285 286 287 287 288 288 289 291 293 294 296 297 297 298 299 298 298 297 297 297 297 297 297 297 296 295 294 293 292 292
237 243 245 248 251 255 260 264 269 274 279 281 284 286 286 286 287 288 289 290 290 292 293 295 295 295 296 297 298 297 297 297 297 297 296 297 296 296 295 295 293 291 290
240 247 250 251 254 257 261 266 271 276 280 282 283 285 286 287 286 288 289 290 291 292 293 294 296 295 295 295 296 296 296 296 296 296 296 297 296 295 294 294 293 291 290
244 251 254 256 258 260 264 269 273 277 281 282 283 285 287 288 287 288 290 290 291 291 292 294 294 295 295 296 296 296 296 296 296 295 295 296 295 295 294 294 292 291 290
249 255 259 260 261 263 266 270 275 277 279 281 283 284 286 286 287 288 290 291 290 290 291 292 293 293 295 295 296 296 296 297 297 296 296 295 295 294 293 293 292 292 291
Height
5881 5881 5882 5882 5882 5883 5883 5884 5884 5884 5885 5885 5885 5885 5885 5886 5887 5886 5887 5887 5888 5888 5888 5888 5888 5888 5888 5888 5889 5889 5889 5890 5890 5891 5891 5892 5892 5893 5893 5894 5894 5895 5895
5880 5881 5881 5882 5882 5883 5883 5883 5884 5884 5885 5885 5885 5885 5885 5886 5886 5886 5887 5887 5887 5887 5887 5887 5887 5887 5887 5887 5887 5887 5888 5888 5888 5889 5890 5890 5891 5891 5892 5892 5893 5894 5894
5879 5880 5881 5881 5882 5882 5883 5883 5884 5884 5885 5885 5885 5885 5885 5885 5886 5886 5886 5887 5887 5887 5887 5887 5886 5886 5886 5886 5886 5886 5886 5886 5886 5887 5887 5888 5889 5890 5890 5891 5891 5892 5893
5878 5879 5880 5881 5881 5882 5883 5883 5884 5884 5884 5885 5885 5885 5885 5885 5885 5886 5886 5886 5886 5886 5886 5886 5885 5885 5885 5884 5884 5884 5884 5884 5885 5885 5885 5886 5886 5887 5888 5888 5889 5889 5890
5877 5878 5879 5880 5881 5882 5882 5883 5884 5884 5884 5884 5885 5885 5885 5885 5885 5885 5885 5886 5886 5885 5885 5885 5884 5884 5884 5883 5883 5883 5883 5883 5883 5883 5884 5884 5884 5885 5885 5886 5886 5887 5887
5876 5877 5878 5880 5881 5881 5882 5883 5883 5883 5884 5884 5884 5884 5885 5885 5885 5885 5885 5885 5885 5885 5884 5884 5884 5883 5883 5882 5882 5881 5881 5881 5881 5881 5881 5882 5882 5882 5883 5883 5883 5884 5884
5874 5876 5877 5879 5880 5881 5881 5882 5883 5883 5883 5884 5884 5884 5885 5885 5885 5885 5885 5885 5884 5884 5884 5883 5883 5882 5881 5881 5880 5880 5880 5879 5879 5879 5879 5879 5880 5880 5880 5880 5880 5880 5881
5873 5875 5876 5878 5879 5880 5881 5882 5883 5883 5884 5884 5884 5884 5884 5885 5885 5885 5884 5884 5884 5883 5882 5882 5882 5882 5881 5880 5879 5879 5878 5878 5878 5877 5877 5877 5877 5877 5877 5877 5877 5877 5878
5872 5874 5875 5877 5879 5880 5881 5882 5883 5883 5883 5884 5884 5884 5884 5884 5884 5884 5884 5883 5883 5882 5882 5881 5881 5880 5880 5879 5878 5878 5877 5877 5876 5876 5875 5875 5875 5875 5874 5874 5874 5874 5874
5871 5873 5875 5876 5878 5879 5880 5881 5882 5883 5883 5883 5883 5884 5884 5884 5884 5884 5883 5883 5882 5882 5881 5881 5880 5879 5879 5878 5877 5877 5876 5875 5875 5874 5874 5873 5873 5872 5872 5872 5871 5871 5871
5869 5872 5874 5875 5877 5878 5880 5881 5882 5882 5883 5883 5883 5883 5883 5883 5883 5883 5883 5882 5881 5881 5880 5880 5879 5878 5878 5877 5876 5875 5875 5874 5873 5872 5872 5871 5870 5870 5869 5869 5868 5868 5867
5868 5870 5872 5874 5876 5877 5879 5880 5881 5882 5882 5882 5883 5883 5883 5883 5883 5882 5882 5881 5881 5880 5879 5879 5878 5877 5876 5876 5875 5874 5873 5872 5871 5870 5869 5868 5868 5867 5866 5866 5865 5864 5864
5866 5868 5871 5873 5874 5876 5878 5879 5880 5881 5881 5882 5882 5882 5882 5882 5882 5881 5881 5880 5880 5879 5878 5877 5876 5875 5875 5874 5873 5872 5871 5870 5869 5868 5867 5866 5865 5864 5863 5863 5862 5861 5860
5863 5866 5869 5871 5873 5875 5876 5877 5878 5879 5880 5880 5881 5881 5881 5881 5880 5880 5879 5879 5878 5877 5876 5875 5874 5873 5873 5872 5870 5869 5868 5867 5866 5865 5864 5863 5862 5861 5860 5859 5858 5857 5856
5861 5864 5867 5869 5871 5873 5874 5876 5877 5878 5878 5879 5879 5879 5879 5879 5879 5878 5877 5877 5876 5875 5875 5874 5872 5871 5870 5869 5868 5867 5865 5864 5863 5862 5860 5859 5858 5857 5855 5854 5853 5852 5851
5859 5862 5865 5867 5869 5871 5872 5874 5875 5875 5876 5876 5877 5877 5877 5877 5876 5876 5875 5874 5873 5873 5872 5871 5870 5868 5867 5866 5864 5863 5862 5861 5859 5858 5856 5855 5854 5852 5851 5849 5848 5846 5845
5857 5860 5862 5865 5867 5869 5870 5871 5872 5873 5873 5874 5874 5874 5874 5874 5874 5873 5872 5871 5870 5869 5868 5868 5866 5865 5863 5862 5861 5859 5858 5857 5855 5854 5852 5850 5849 5847 5845 5844 5842 5840 5839
5854 5857 5860 5862 5864 5866 5867 5868 5869 5870 5870 5871 5871 5871 5871 5871 5870 5870 5869 5868 5867 5866 5865 5864 5863 5861 5859 5858 5856 5855 5854 5852 5851 5849 5847 5846 5844 5842 5840 5838 5836 5834 5832
5851 5854 5857 5859 5861 5863 5864 5865 5866 5867 5867 5867 5867 5868 5867 5867 5867 5866 5865 5864 5863 5862 5861 5860 5858 5857 5855 5854 5852 5850 5849 5847 5845 5843 5841 5839 5837 5835 5833 5831 5829 5827 5825
5848 5851 5853 5856 5858 5859 5861 5862 5863 5863 5863 5864 5864 5863 5863 5863 5862 5862 5861 5860 5859 5857 5856 5855 5854 5852 5850 5849 5847 5845 5843 5841 5839 5837 5834 5832 5830 5828 5825 5823 5821 5818 5816
5845 5848 5850 5852 5854 5855 5857 5858 5859 5859 5859 5860 5859 5859 5859 5858 5858 5857 5856 5855 5854 5852 5851 5850 5848 5847 5845 5843 5841 5839 5837 5834 5832 5830 5827 5825 5822 5820 5817 5814 5812 5809 5807
5842 5844 5846 5848 5850 5851 5853 5854 5855 5855 5855 5855 5855 5854 5854 5853 5852 5852 5851 5849 5848 5847 5845 5844 5842 5840 5838 5836 5833 5831 5829 5827 5825 5822 5819 5817 5813 5811 5808 5805 5802 5799 5796
5839 5840 5842 5844 5846 5847 5849 5849 5850 5850 5850 5850 5849 5849 5848 5848 5847 5846 5844 5843 5842 5840 5838 5837 5835 5832 5830 5828 5825 5823 5820 5818 5815 5812 5810 5807 5804 5801 5798 5794 5792 5788 5785
5835 5837 5838 5840 5841 5843 5844 5844 5845 5845 5844 5844 5844 5843 5842 5841 5840 5839 5838 5837 5835 5833 5831 5829 5827 5825 5822 5819 5816 5814 5811 5809 5806 5802 5798 5796 5793 5790 5787 5783 5780 5777 5774
5831 5832 5834 5835 5836 5837 5838 5839 5839 5839 5838 5838 5837 5837 5836 5835 5833 5832 5831 5829 5828 5826 5823 5821 5819 5816 5813 5810 5807 5804 5801 5798 5796 5792 5788 5784 5782 5778 5775 5772 5768 5764 5761
5826 5828 5829 5829 5830 5832 5832 5832 5832 5832 5831 5831 5830 5830 5829 5828 5826 5824 5823 5822 5820 5817 5815 5813 5810 5807 5804 5801 5797 5794 5790 5787 5784 5781 5777 5772 5769 5765 5763 5760 5755 5751 5748